Weather History for Alta Floresta, Brazil

Change the Weather History Date:

Wednesday, June 12, 2013

  Actual Average Record
Temperature  
Mean Temperature 82 °F -  
Max Temperature 95 °F - - ()
Min Temperature 68 °F - - ()
Cooling Degree Days 16    
Growing Degree Days 32 (Base 50)    
Moisture  
Dew Point 69 °F    
Average Humidity 64    
Maximum Humidity 100    
Minimum Humidity 28    
Precipitation  
Precipitation 0.00 in - - ()
Sea Level Pressure  
Sea Level Pressure 29.99 in    
Wind  
Wind Speed 4 mph ()    
Max Wind Speed 10 mph    
Max Gust Speed -    
Visibility 7.9 miles    
Events      
T = Trace of Precipitation, MM = Missing Value Source: Averaged Metar Reports

Daily Weather History Graph

Daily Weather History Graph

Search for Another Location

Airport:

Trip Planner

Search our weather history database for the weather conditions in past years. The results will help you decide how hot, cold, wet, or windy it might be!

Date:

Astronomy

Jun. 12, 2013 Rise Set
Actual Time 5:57 AM AMT 5:30 PM AMT
Civil Twilight 5:34 AM AMT 5:53 PM AMT
Nautical Twilight 5:08 AM AMT 6:20 PM AMT
Astronomical Twilight 4:42 AM AMT 6:46 PM AMT
Moon 8:50 AM AMT (6/12) 8:52 PM AMT (6/12)
Length of Visible Light 12h 18m
Length of Day
11h 33m
Waxing Crescent, 14% of the Moon is Illuminated
Jun 12
Waxing Crescent
Jun 16
First Quarter
Jun 23
Full
Jun 30
Last Quarter
Jul 8
New

Hourly Weather History & Observations

Time (AMT) Temp. Heat Index Dew Point Humidity Pressure Visibility Wind Dir Wind Speed Gust Speed Precip Events Conditions
12:00 AM 71.6 °F - 68.0 °F 88% 30.01 in - SE 1.2 mph - N/A   Clear
6:15 AM 68.0 °F - 66.2 °F 94% 30.01 in - Calm Calm - N/A   Clear
7:00 AM 73.4 °F - 69.8 °F 88% 30.01 in - Calm Calm - N/A   Clear
8:00 AM 81 °F - 69 °F 60% 30.01 in 12 mi SSE 6.9 mph - -   Clear
8:00 AM 80.6 °F 83.9 °F 69.8 °F 70% 30.04 in - SSE 6.9 mph - N/A   Clear
9:00 AM 86.0 °F 89.4 °F 68.0 °F 55% 30.06 in - ESE 10.4 mph - N/A   Clear
10:00 AM 89.6 °F 94.7 °F 69.8 °F 52% 30.04 in - SE 9.2 mph - N/A   Clear
11:00 AM 91.4 °F 95.4 °F 68.0 °F 46% 30.04 in 6.2 mi SE 10.4 mph - N/A   Partly Cloudy
12:00 PM 93.2 °F 96.2 °F 66.2 °F 41% 30.01 in 6.2 mi ESE 9.2 mph - N/A   Partly Cloudy
1:00 PM 95.0 °F 98.5 °F 66.2 °F 39% 29.98 in 6.2 mi East 9.2 mph - N/A   Partly Cloudy
2:00 PM 96 °F - 66 °F 28% 29.91 in 12 mi East 9.2 mph - -   Partly Cloudy
2:00 PM 96.8 °F 100.7 °F 66.2 °F 37% 29.95 in 6.2 mi East 9.2 mph - N/A   Scattered Clouds
3:00 PM 95.0 °F 98.5 °F 66.2 °F 39% 29.95 in - ESE 6.9 mph - N/A   Clear
4:00 PM 93.2 °F 94.9 °F 64.4 °F 38% 29.95 in 6.2 mi East 6.9 mph - N/A   Partly Cloudy
5:00 PM 89.6 °F 93.4 °F 68.0 °F 49% 29.95 in 6.2 mi ESE 4.6 mph - N/A   Partly Cloudy
6:00 PM 82.4 °F 85.4 °F 68.0 °F 62% 29.95 in 6.2 mi ESE 1.2 mph - N/A   Partly Cloudy
7:00 PM 77.0 °F - 71.6 °F 83% 29.95 in - South 1.2 mph - N/A   Clear
8:00 PM 75 °F - 72 °F 86% 29.94 in 12 mi Calm Calm - -  
8:00 PM 75.2 °F - 71.6 °F 89% 29.98 in - Calm Calm - N/A   Clear
9:00 PM 75.2 °F - 71.6 °F 89% 29.98 in - SSE 2.3 mph - N/A   Clear
10:00 PM 73.4 °F - 73.4 °F 100% 29.98 in - SSE 3.5 mph - N/A   Clear
11:00 PM 75.2 °F - 68.0 °F 78% 29.98 in - SSE 3.5 mph - N/A   Clear